• In Kazakhstan
  • List of Countries
  • For 7 days
  • Water Temperature
  • Satellite Maps
  • Weather Map
  • News
  • Weather Widgets
  • user-avatar
    Login

    Hourly Weather Adelaide

    Today, 27 July, Thursday

    Time Temperature Precipitation Wind Pressure Humidity
    00:00 +10°C° 0 mm 3 mps 763 mmHg 80%
    01:00 +10°C° 0 mm 4 mps 762 mmHg 79%
    02:00 +10°C° 0 mm 4 mps 762 mmHg 77%
    03:00 +10°C° 0 mm 4 mps 762 mmHg 76%
    04:00 +10°C° 0 mm 4 mps 761 mmHg 73%
    05:00 +9°C° 0 mm 5 mps 761 mmHg 70%
    06:00 +9°C° 0 mm 5 mps 760 mmHg 67%
    07:00 +10°C° 0 mm 5 mps 760 mmHg 63%
    08:00 +13°C° 0 mm 6 mps 760 mmHg 60%
    09:00 +14°C° 0 mm 6 mps 760 mmHg 56%
    10:00 +15°C° 0 mm 7 mps 759 mmHg 54%
    11:00 +17°C° 0 mm 7 mps 759 mmHg 52%
    12:00 +18°C° 0 mm 7 mps 758 mmHg 50%
    13:00 +18°C° 0.1 mm 7 mps 758 mmHg 56%
    14:00 +17°C° 0.1 mm 7 mps 758 mmHg 61%
    15:00 +16°C° 0.1 mm 7 mps 757 mmHg 67%
    16:00 +15°C° 0.1 mm 7 mps 758 mmHg 71%
    17:00 +15°C° 0.1 mm 7 mps 758 mmHg 74%
    18:00 +14°C° 0.1 mm 6 mps 759 mmHg 78%
    19:00 +13°C° 0 mm 6 mps 759 mmHg 77%
    20:00 +13°C° 0 mm 5 mps 760 mmHg 76%
    21:00 +12°C° 0 mm 5 mps 761 mmHg 74%
    22:00 +11°C° 0 mm 4 mps 761 mmHg 75%
    23:00 +11°C° 0 mm 4 mps 761 mmHg 75%

    Tomorrow, 28 July, Friday

    Time Temperature Precipitation Wind Pressure Humidity
    00:00 +10°C° 0 mm 3 mps 762 mmHg 76%
    01:00 +10°C° 0 mm 3 mps 761 mmHg 77%
    02:00 +10°C° 0 mm 3 mps 761 mmHg 78%
    03:00 +10°C° 0 mm 2 mps 761 mmHg 78%
    04:00 +9°C° 0 mm 2 mps 761 mmHg 79%
    05:00 +9°C° 0 mm 2 mps 762 mmHg 80%
    06:00 +10°C° 0 mm 1 mps 762 mmHg 81%
    07:00 +10°C° 0 mm 2 mps 762 mmHg 77%
    08:00 +11°C° 0 mm 3 mps 762 mmHg 74%
    09:00 +12°C° 0 mm 3 mps 762 mmHg 71%
    10:00 +13°C° 0 mm 4 mps 762 mmHg 65%
    11:00 +15°C° 0 mm 4 mps 761 mmHg 58%
    12:00 +16°C° 0 mm 5 mps 761 mmHg 51%
    13:00 +16°C° 0 mm 5 mps 760 mmHg 48%
    14:00 +17°C° 0 mm 5 mps 759 mmHg 45%
    15:00 +19°C° 0 mm 5 mps 758 mmHg 43%
    16:00 +17°C° 0 mm 5 mps 758 mmHg 44%
    17:00 +16°C° 0 mm 5 mps 757 mmHg 45%
    18:00 +15°C° 0 mm 5 mps 757 mmHg 46%
    19:00 +15°C° 0 mm 5 mps 757 mmHg 47%
    20:00 +15°C° 0 mm 6 mps 757 mmHg 48%
    21:00 +16°C° 0 mm 6 mps 756 mmHg 50%
    22:00 +16°C° 0 mm 7 mps 756 mmHg 46%
    23:00 +17°C° 0 mm 7 mps 755 mmHg 43%

    Day after tomorrow, 29 July, Saturday

    Time Temperature Precipitation Wind Pressure Humidity
    00:00 +18°C° 0 mm 8 mps 754 mmHg 39%
    01:00 +18°C° 0 mm 8 mps 754 mmHg 36%
    02:00 +18°C° 0 mm 8 mps 753 mmHg 34%
    03:00 +18°C° 0 mm 9 mps 752 mmHg 31%
    04:00 +18°C° 0 mm 9 mps 752 mmHg 31%
    05:00 +19°C° 0 mm 10 mps 752 mmHg 30%
    06:00 +19°C° 0 mm 10 mps 751 mmHg 29%
    07:00 +19°C° 0 mm 10 mps 751 mmHg 31%
    08:00 +19°C° 0 mm 11 mps 751 mmHg 33%
    09:00 +21°C° 0 mm 11 mps 750 mmHg 34%
    10:00 +21°C° 0 mm 10 mps 750 mmHg 40%
    11:00 +21°C° 0 mm 10 mps 751 mmHg 46%
    12:00 +21°C° 0 mm 9 mps 751 mmHg 51%
    13:00 +18°C° 0.9 mm 9 mps 751 mmHg 61%
    14:00 +16°C° 0.9 mm 9 mps 751 mmHg 71%
    15:00 +13°C° 0.9 mm 9 mps 751 mmHg 81%
    16:00 +13°C° 1.6 mm 9 mps 752 mmHg 81%
    17:00 +13°C° 1.6 mm 8 mps 753 mmHg 82%
    18:00 +14°C° 1.6 mm 7 mps 753 mmHg 82%
    19:00 +12°C° 0.1 mm 7 mps 754 mmHg 80%
    20:00 +12°C° 0.1 mm 7 mps 754 mmHg 79%
    21:00 +11°C° 0.1 mm 6 mps 755 mmHg 77%
    22:00 +11°C° 0.1 mm 6 mps 755 mmHg 77%
    23:00 +11°C° 0.1 mm 6 mps 755 mmHg 76%

    30 July, Sunday

    Time Temperature Precipitation Wind Pressure Humidity
    00:00 +11°C° 0.1 mm 6 mps 755 mmHg 76%
    01:00 +11°C° 0 mm 6 mps 755 mmHg 76%
    02:00 +11°C° 0 mm 6 mps 755 mmHg 77%
    03:00 +10°C° 0 mm 6 mps 755 mmHg 78%
    04:00 +10°C° 0.2 mm 6 mps 755 mmHg 79%
    05:00 +10°C° 0.2 mm 6 mps 755 mmHg 79%
    06:00 +10°C° 0.2 mm 6 mps 756 mmHg 80%
    07:00 +11°C° 0.1 mm 6 mps 756 mmHg 78%
    08:00 +13°C° 0.1 mm 6 mps 756 mmHg 75%
    09:00 +13°C° 0.1 mm 6 mps 757 mmHg 73%
    10:00 +14°C° 0.4 mm 7 mps 757 mmHg 72%
    11:00 +14°C° 0.4 mm 7 mps 756 mmHg 70%
    12:00 +14°C° 0.4 mm 7 mps 756 mmHg 69%
    13:00 +14°C° 0.4 mm 7 mps 756 mmHg 69%
    14:00 +14°C° 0.4 mm 7 mps 756 mmHg 70%
    15:00 +14°C° 0.4 mm 6 mps 756 mmHg 70%
    16:00 +13°C° 0.2 mm 6 mps 757 mmHg 74%
    17:00 +12°C° 0.2 mm 5 mps 757 mmHg 78%
    18:00 +10°C° 0.2 mm 5 mps 758 mmHg 82%
    19:00 +11°C° 0 mm 4 mps 758 mmHg 82%
    20:00 +11°C° 0 mm 4 mps 759 mmHg 83%
    21:00 +11°C° 0 mm 3 mps 759 mmHg 83%
    22:00 +11°C° 0 mm 3 mps 759 mmHg 84%
    23:00 +10°C° 0 mm 3 mps 759 mmHg 84%

    31 July, Monday

    Time Temperature Precipitation Wind Pressure Humidity
    00:00 +10°C° 0 mm 3 mps 759 mmHg 84%
    01:00 +10°C° 0 mm 3 mps 759 mmHg 84%
    02:00 +10°C° 0 mm 3 mps 759 mmHg 84%
    03:00 +10°C° 0 mm 3 mps 759 mmHg 84%
    04:00 +10°C° 0 mm 3 mps 760 mmHg 83%
    05:00 +9°C° 0 mm 2 mps 760 mmHg 83%
    06:00 +9°C° 0 mm 2 mps 761 mmHg 82%
    07:00 +10°C° 0 mm 2 mps 761 mmHg 77%
    08:00 +12°C° 0 mm 2 mps 762 mmHg 73%
    09:00 +13°C° 0 mm 2 mps 762 mmHg 68%
    10:00 +13°C° 0 mm 3 mps 762 mmHg 64%
    11:00 +14°C° 0 mm 3 mps 762 mmHg 60%
    12:00 +14°C° 0 mm 3 mps 762 mmHg 55%
    13:00 +14°C° 0 mm 3 mps 762 mmHg 55%
    14:00 +14°C° 0 mm 3 mps 762 mmHg 55%
    15:00 +14°C° 0 mm 3 mps 762 mmHg 54%
    16:00 +12°C° 0 mm 3 mps 762 mmHg 59%
    17:00 +12°C° 0 mm 2 mps 763 mmHg 63%
    18:00 +10°C° 0 mm 2 mps 764 mmHg 67%
    19:00 +9°C° 0 mm 2 mps 764 mmHg 69%
    20:00 +9°C° 0 mm 2 mps 764 mmHg 71%
    21:00 +9°C° 0 mm 1 mps 765 mmHg 73%
    22:00 +9°C° 0 mm 1 mps 765 mmHg 74%
    23:00 +8°C° 0 mm 1 mps 765 mmHg 75%

    1 August, Tuesday

    Time Temperature Precipitation Wind Pressure Humidity
    00:00 +8°C° 0 mm 1 mps 764 mmHg 76%
    01:00 +7°C° 0 mm 2 mps 764 mmHg 76%
    02:00 +7°C° 0 mm 2 mps 764 mmHg 76%
    03:00 +7°C° 0 mm 2 mps 764 mmHg 76%
    04:00 +7°C° 0 mm 2 mps 765 mmHg 76%
    05:00 +5°C° 0 mm 3 mps 765 mmHg 76%
    06:00 +5°C° 0 mm 3 mps 765 mmHg 77%
    07:00 +7°C° 0 mm 3 mps 765 mmHg 72%
    08:00 +8°C° 0 mm 4 mps 765 mmHg 68%
    09:00 +10°C° 0 mm 4 mps 766 mmHg 64%
    10:00 +11°C° 0 mm 4 mps 765 mmHg 60%
    11:00 +13°C° 0 mm 4 mps 765 mmHg 56%
    12:00 +14°C° 0 mm 4 mps 764 mmHg 53%
    13:00 +15°C° 0 mm 4 mps 764 mmHg 53%
    14:00 +15°C° 0 mm 4 mps 763 mmHg 53%
    15:00 +15°C° 0 mm 4 mps 763 mmHg 52%
    16:00 +14°C° 0 mm 4 mps 763 mmHg 57%
    17:00 +12°C° 0 mm 4 mps 763 mmHg 61%
    18:00 +11°C° 0 mm 4 mps 763 mmHg 65%
    19:00 +10°C° 0 mm 5 mps 763 mmHg 63%
    20:00 +9°C° 0 mm 5 mps 763 mmHg 61%
    21:00 +9°C° 0 mm 5 mps 763 mmHg 60%
    22:00 +9°C° 0 mm 6 mps 763 mmHg 58%
    23:00 +8°C° 0 mm 6 mps 762 mmHg 56%
    Show more